Regional Weather Roundup
Issued by NWS

Current Version | Previous Version | Text Only | Print | Product List | Glossary On
Versions: 1 2 3 4 5 6 7 8 9 10 11 12 13 14 15 16 17 18 19 20 21 22 23 24 25 26 27 28 29 30 31 32 33 34 35 36 37 38 39 40 41 42 43 44 45 46 47 48 49 50
000
ASUS42 KFFC 031210
RWRGA
WEATHER ROUNDUP FOR GEORGIA
NATIONAL WEATHER SERVICE PEACHTREE CITY GA
700 AM EST SAT DEC 03 2016

NOTE: "FAIR" INDICATES FEW OR NO CLOUDS BELOW 12,000 FEET WITH NO
SIGNIFICANT WEATHER AND/OR OBSTRUCTIONS TO VISIBILITY.

* = USE WITH CAUTION. THE STATIONS MARKED WITH AN ASTERISK MAY NOT
REPORT WEATHER SUCH AS PRECIPITATION, FOG, OR THUNDER AND ARE NOT
QUALITY CONTROLLED BY NWS.

THE REMARK "TC" DENOTES TEMPERATURE READING IN DEGREES CELSIUS.

GAZ001>058-031300-
NORTH GEORGIA

CITY           SKY/WX    TMP DP  RH WIND       PRES   REMARKS
ATLANTA        MOCLDY    42  33  70 NW7       30.26S
6HR MIN TEMP:  42; 6HR MAX TEMP:  45;

ATHENS         CLEAR     37  32  82 W5        30.24R WCI  33
6HR MIN TEMP:  37; 6HR MAX TEMP:  44;

CHAMBLEE       PTCLDY    37  31  78 SW3       30.27R
6HR MIN TEMP:  36; 6HR MAX TEMP:  42;

PEACHTREE CITY PTCLDY    37  36  96 CALM      30.27S
6HR MIN TEMP:  35; 6HR MAX TEMP:  39;

ROME           PTCLDY    33  30  88 CALM      30.30R
6HR MIN TEMP:  30; 6HR MAX TEMP:  37;

WEST ATLANTA   PTCLDY    40  32  73 CALM      30.27S
6HR MIN TEMP:  38; 6HR MAX TEMP:  42;

GAINESVILLE    CLEAR     40  30  67 W6        30.26R
6HR MIN TEMP:  39; 6HR MAX TEMP:  45;

CARTERSVILLE   CLOUDY    33  32  96 CALM      30.31R
6HR MIN TEMP:  31; 6HR MAX TEMP:  36;



CITY           SKY/WX    TMP DP  RH WIND       PRES   REMARKS
DALTON*        CLEAR     37  32  81 NW10      30.30R WCI  30
LAWRENCEVILLE* CLEAR     41  28  60 CALM      30.22
MARIETTA       MOCLDY    37  31  80 W3        30.27R
KENNESAW*      CLEAR     39  28  65 NW5       30.33
CANTON*        CLOUDY    36  27  69 CALM      30.26S
$$

GAZ059>098-102>109-031300-
CENTRAL GEORGIA

CITY           SKY/WX    TMP DP  RH WIND       PRES   REMARKS
AUGUSTA-BUSH   CLOUDY    37  34  89 CALM      30.26R
6HR MIN TEMP:  34; 6HR MAX TEMP:  38;

AUGUSTA-DANIEL MOCLDY    44  32  62 CALM      30.26R
6HR MIN TEMP:  42; 6HR MAX TEMP:  50;

COLUMBUS       CLOUDY    47  35  63 CALM      30.25S
6HR MIN TEMP:  43; 6HR MAX TEMP:  48;

MACON          CLOUDY    43  37  79 W5        30.26R
6HR MIN TEMP:  39; 6HR MAX TEMP:  44;

ROBINS AFB     CLOUDY    44  37  78 NW3       30.26R


CITY           SKY/WX    TMP DP  RH WIND       PRES   REMARKS
LAGRANGE*      CLOUDY    41  41 100 CALM      30.27S
SYLVANIA*      PTCLDY   N/A N/A N/A CALM      30.25S
MILLEDGEVILLE* CLOUDY    43  39  87 CALM      30.26R
$$

GAZ099>101-110>166-031300-
SOUTH GEORGIA

CITY           SKY/WX    TMP DP  RH WIND       PRES   REMARKS
SAVANNAH       MOCLDY    44  36  73 N6        30.25R
6HR MIN TEMP:  42; 6HR MAX TEMP:  45;

VALDOSTA       CLOUDY    51  33  50 NE6       30.23
6HR MIN TEMP:  40; 6HR MAX TEMP:  52;

ALMA           CLOUDY    48  35  60 N3        30.24
6HR MIN TEMP:  44; 6HR MAX TEMP:  49;

ST SIMONS      PTCLDY    49  37  63 N6        30.23
6HR MIN TEMP:  48; 6HR MAX TEMP:  52;

FT STEWART     CLOUDY    45  37  72 CALM      30.22R
ALBANY         CLOUDY    53  34  48 CALM      30.24
HUNTER AFB     PTCLDY    45  38  77 NW5       30.21R
MOODY AFB      CLOUDY    51  33  50 NE5       30.22R
BRUNSWICK      PTCLDY    43  41  93 CALM      30.25R


CITY           SKY/WX    TMP DP  RH WIND       PRES   REMARKS
BAINBRIDGE*    PTCLDY    52  37  58 E5        30.22S
MOULTRIE*      CLOUDY    52  34  50 CALM      30.22F
VIDALIA*       PTCLDY    46  39  76 CALM      30.25R
WAYCROSS*      CLOUDY    50  42  72 CALM      30.24S
DOUGLAS*       PTCLDY    50  32  50 NE6       30.25S
$$




USA.gov is the U.S. government's official web portal to all federal, state and local government web resources and services.